FW3072 Weather Reports


time (UTC)temp
C
wind
direction
speed
KPH
gust
KPH
rain 1hr
cm
rain 24hr
cm
rain mn
cm
humidity
%
barometer
mb
20260507151203 10 307 8.0 19.3 0.00 0.00 0.00 64 1012.3
20260507150202 10 335 3.2 17.7 0.00 0.00 0.00 67 1012.3
20260507145203 9 297 8.0 12.9 0.00 0.00 0.00 70 1012.4
20260507144202 8 280 6.4 19.3 0.00 0.00 0.00 73 1012.4
20260507143203 8 239 0.0 14.5 0.00 0.00 0.00 73 1012.4
20260507142202 7 309 3.2 12.9 0.00 0.00 0.00 77 1012.6
20260507141203 7 262 1.6 8.0 0.00 0.03 0.00 78 1012.5
20260507140224 6 141 3.2 8.0 0.00 0.03 0.00 81 1012.6
20260507135203 6 98 0.0 6.4 0.00 0.03 0.00 82 1012.7
20260507134203 6 109 3.2 6.4 0.00 0.05 0.00 85 1012.7
20260507133203 5 117 1.6 6.4 0.00 0.05 0.00 87 1012.9
20260507132203 5 121 0.0 3.2 0.00 0.05 0.00 88 1012.9
20260507131202 5 121 1.6 4.8 0.00 0.05 0.00 89 1012.9
20260507130203 5 111 3.2 6.4 0.00 0.05 0.00 91 1012.9
20260507125204 4 92 0.0 3.2 0.00 0.05 0.00 92 1013.0
20260507124203 4 92 0.0 0.0 0.00 0.05 0.00 92 1013.0
20260507123204 4 87 0.0 0.0 0.00 0.08 0.00 93 1013.1
20260507122202 3 71 0.0 0.0 0.00 0.10 0.00 93 1013.2
20260507121203 3 71 0.0 0.0 0.00 0.10 0.00 92 1013.1
20260507120204 4 61 0.0 0.0 0.00 0.10 0.00 93 1013.1
20260507115203 4 61 0.0 0.0 0.00 0.10 0.00 93 1013.2
20260507114203 5 29 0.0 0.0 0.00 0.13 0.00 93 1013.4
20260507113202 5 29 0.0 0.0 0.00 0.13 0.00 93 1013.4
20260507112203 5 29 0.0 0.0 0.00 0.15 0.00 93 1013.2
20260507111204 5 30 0.0 0.0 0.00 0.18 0.00 93 1013.1
20260507110203 4 30 0.0 0.0 0.00 0.18 0.00 93 1012.8
20260507105202 4 30 0.0 0.0 0.00 0.20 0.00 93 1012.6
20260507104204 4 30 0.0 0.0 0.00 0.20 0.00 93 1012.5
20260507103202 4 30 0.0 0.0 0.00 0.23 0.00 93 1012.4
20260507102224 4 28 0.0 0.0 0.00 0.23 0.00 93 1012.2
20260507101203 3 27 0.0 0.0 0.00 0.25 0.00 93 1012.3
20260507100204 3 27 0.0 0.0 0.00 0.25 0.00 93 1012.3
20260507095225 3 27 0.0 0.0 0.00 0.28 0.00 93 1012.4
20260507094204 3 27 0.0 0.0 0.00 0.30 0.00 92 1012.4
20260507093202 3 27 0.0 0.0 0.00 0.33 0.00 93 1012.4
20260507092203 3 27 0.0 0.0 0.00 0.36 0.00 92 1012.4
20260507091202 3 27 0.0 0.0 0.00 0.38 0.00 93 1012.3
20260507090203 3 27 0.0 0.0 0.00 0.41 0.00 92 1012.4
20260507085204 3 27 0.0 0.0 0.00 0.46 0.00 92 1012.4
20260507083202 3 27 0.0 0.0 0.00 0.51 0.00 92 1012.4
20260507082203 3 27 0.0 0.0 0.00 0.56 0.00 92 1012.4
20260507081224 3 27 0.0 0.0 0.00 0.58 0.00 92 1012.3
20260507080204 3 27 0.0 0.0 0.00 0.61 0.00 92 1012.3
20260507075203 3 27 0.0 0.0 0.00 0.64 0.00 92 1012.3
20260507074202 3 27 0.0 0.0 0.00 0.66 0.00 92 1012.1
20260507073203 3 27 0.0 0.0 0.00 0.71 0.00 92 1012.2
20260507072202 3 27 0.0 0.0 0.00 0.74 0.00 92 1012.0
20260507071203 3 27 0.0 0.0 0.00 0.76 0.00 92 1012.2
20260507070202 3 27 0.0 0.0 0.00 0.81 0.00 92 1012.2
20260507065203 4 27 0.0 0.0 0.00 0.84 0.00 92 1012.2
20260507064203 4 27 0.0 0.0 0.00 0.86 0.00 92 1012.4
20260507063203 5 27 0.0 0.0 0.00 0.91 0.00 92 1012.4
20260507062203 5 27 0.0 0.0 0.00 0.94 0.00 92 1012.6
20260507061203 5 27 0.0 0.0 0.00 0.94 0.00 92 1012.6
20260507060202 5 27 0.0 0.0 0.00 0.97 0.00 92 1012.6
20260507055225 5 27 0.0 0.0 0.00 0.97 0.00 92 1012.6
20260507054225 5 27 0.0 0.0 0.00 0.99 0.00 92 1012.8
20260507053204 5 27 0.0 0.0 0.00 1.02 0.00 92 1012.9
20260507052204 5 27 0.0 0.0 0.00 1.04 0.00 92 1012.9
20260507051203 5 27 0.0 0.0 0.00 1.09 0.00 92 1013.0
20260507050203 5 27 0.0 0.0 0.00 1.14 0.00 92 1013.0
20260507045202 5 27 0.0 0.0 0.00 1.19 0.00 92 1013.2
20260507044224 5 27 0.0 0.0 0.00 1.24 0.00 92 1013.1
20260507043202 6 27 0.0 0.0 0.00 1.30 0.00 92 1013.2
20260507042243 6 27 0.0 0.0 0.00 1.35 0.00 92 1013.2
20260507041203 6 27 0.0 0.0 0.00 1.37 0.00 92 1013.1
20260507040202 6 27 0.0 0.0 0.00 1.37 0.00 92 1013.1
20260507035201 6 27 0.0 0.0 0.00 1.40 1.40 92 1013.1
20260507034203 6 27 0.0 0.0 0.00 1.40 1.40 92 1013.0
20260507033201 6 27 0.0 0.0 0.00 1.40 1.40 92 1013.0
20260507032203 6 27 0.0 0.0 0.00 1.40 1.40 92 1012.9
20260507031201 6 27 0.0 0.0 0.00 1.45 1.40 92 1012.9
20260507030202 6 27 0.0 0.0 0.00 1.47 1.40 92 1013.0
20260507025201 6 27 0.0 0.0 0.00 1.50 1.40 92 1012.9
20260507024202 6 27 0.0 0.0 0.00 1.55 1.40 92 1012.9
20260507023224 6 27 0.0 0.0 0.00 1.57 1.40 92 1012.9
20260507022202 6 27 0.0 0.0 0.00 1.60 1.40 92 1012.9
20260507021202 6 27 0.0 0.0 0.00 1.63 1.40 92 1013.0
20260507020202 6 27 0.0 0.0 0.00 1.63 1.40 92 1013.2
20260507015202 6 27 0.0 0.0 0.00 1.65 1.40 92 1013.3
20260507014222 6 27 0.0 0.0 0.00 1.65 1.40 92 1013.3
20260507013223 6 27 0.0 0.0 0.00 1.65 1.40 92 1013.3
20260507012201 6 27 0.0 0.0 0.00 1.68 1.40 91 1013.0
20260507011203 6 27 0.0 0.0 0.00 1.68 1.40 91 1012.9
20260507010201 6 27 0.0 0.0 0.00 1.68 1.40 91 1012.8
20260507005203 6 27 0.0 0.0 0.00 1.70 1.40 91 1012.8
20260507004202 6 27 0.0 0.0 0.00 1.73 1.40 91 1012.7
20260507002244 6 27 0.0 0.0 0.00 1.85 1.40 91 1012.4
20260507001201 6 27 0.0 0.0 0.00 1.93 1.40 91 1012.3
20260507000204 6 27 0.0 0.0 0.00 2.01 1.40 91 1012.3
20260506235203 6 27 0.0 0.0 0.00 2.11 1.40 91 1012.2
20260506234225 6 27 0.0 0.0 0.00 2.18 1.40 91 1012.1
20260506233202 6 54 0.0 0.0 0.00 2.24 1.40 91 1012.2
20260506232222 6 5 0.0 0.0 0.00 2.26 1.40 91 1012.2
20260506231203 6 5 1.6 4.8 0.00 2.29 1.40 91 1012.1
20260506230204 6 34 0.0 9.7 0.00 2.34 1.40 91 1011.9
20260506225222 6 345 1.6 8.0 0.00 2.39 1.40 91 1011.8
20260506224202 6 25 1.6 8.0 0.00 2.44 1.40 91 1011.7
20260506223201 6 315 1.6 14.5 0.00 2.49 1.40 91 1011.4
20260506222203 6 4 1.6 8.0 0.00 2.51 1.40 91 1011.4
20260506221203 6 314 3.2 12.9 0.00 2.59 1.40 91 1011.1
20260506220203 6 343 6.4 11.3 0.00 2.64 1.40 91 1011.2
20260506215201 6 344 4.8 17.7 0.03 2.72 1.40 91 1011.3
20260506214202 6 279 1.6 12.9 0.03 2.77 1.40 90 1011.0
20260506213202 6 300 9.7 17.7 0.03 2.84 1.40 90 1010.9
20260506212202 6 296 8.0 22.5 0.03 2.92 1.40 90 1010.8
20260506211202 7 300 11.3 25.7 0.00 3.02 1.37 89 1010.5
20260506210202 7 296 9.7 20.9 0.00 3.12 1.37 88 1010.3
20260506205201 8 279 12.9 24.1 0.00 3.20 1.37 87 1010.2
20260506204223 8 303 11.3 24.1 0.00 3.25 1.37 87 1010.0
20260506203202 9 311 14.5 27.4 0.00 3.25 1.37 86 1009.8
20260506202222 10 232 6.4 12.9 0.00 3.25 1.37 88 1009.5
20260506201202 10 300 0.0 6.4 0.00 3.25 1.37 89 1009.5
20260506200202 10 237 0.0 6.4 0.00 3.25 1.37 89 1009.6
20260506195202 10 209 1.6 8.0 0.00 3.25 1.37 90 1009.5
20260506194222 9 253 1.6 4.8 0.00 3.25 1.37 90 1009.6
20260506193202 9 124 0.0 0.0 0.00 3.25 1.37 90 1009.6
20260506192202 10 124 0.0 0.0 0.00 3.25 1.37 90 1009.4
20260506191203 10 124 0.0 0.0 0.00 3.25 1.37 90 1009.5
20260506190202 10 124 0.0 0.0 0.00 3.25 1.37 90 1009.4
20260506185201 10 124 0.0 0.0 0.00 3.25 1.37 90 1009.3
20260506184226 10 124 0.0 3.2 0.00 3.25 1.37 91 1009.3
20260506183202 10 124 1.6 6.4 0.00 3.25 1.37 92 1009.3
20260506182202 9 124 1.6 4.8 0.00 3.25 1.37 92 1009.4
20260506181202 9 125 0.0 3.2 0.00 3.25 1.37 92 1009.5
20260506180202 9 125 1.6 6.4 0.00 3.25 1.37 92 1009.5
20260506175202 8 98 0.0 3.2 0.00 3.25 1.37 92 1009.5
20260506174201 8 98 0.0 4.8 0.00 3.25 1.37 92 1009.5
20260506173202 8 98 0.0 3.2 0.00 3.25 1.37 93 1009.5
20260506172202 8 98 0.0 4.8 0.00 3.25 1.37 93 1009.7
20260506171202 8 98 0.0 3.2 0.00 3.25 1.37 93 1009.7
20260506170245 8 98 1.6 6.4 0.00 3.25 1.37 93 1009.6
20260506165201 8 98 0.0 6.4 0.00 3.25 1.37 93 1009.4
20260506164203 8 98 0.0 6.4 0.00 3.25 1.37 93 1009.5
20260506163202 8 98 1.6 3.2 0.00 3.25 1.37 93 1009.3
20260506162202 8 98 0.0 1.6 0.00 3.25 1.37 93 1009.4
20260506161201 8 98 1.6 3.2 0.00 3.25 1.37 93 1009.5
20260506160202 8 98 0.0 4.8 0.00 3.25 1.37 93 1009.4
20260506155201 8 98 0.0 4.8 0.00 3.25 1.37 93 1009.3
20260506154202 8 98 0.0 3.2 0.00 3.25 1.37 93 1009.3
20260506153201 8 81 0.0 1.6 0.00 3.25 1.37 93 1009.3
20260506152203 8 81 0.0 8.0 0.00 3.25 1.37 93 1009.2